Starlink 3291

operational
NORAD ID: 50175 Int'l Des: 2021-125 Owner: SPXS Country: US Constellation: starlink
LEOCIRCULAR

Über Starlink 3291

Beschreibung wird geladen...

Live-Position

3D-Globus wird geladen...

Nächste Überflüge

Höhenverlauf

Altitude vs Time

uPlot chart will show altitude changes over time

Zweizeiliger Elementsatz

1 50175U 21125V 25351.03879917 -.00000261 00000-0 16925-5 0 9997
2 50175 53.2172 260.1538 0001522 87.7683 272.3483 15.08843145224123
Epoch: 17. Dez. 2025 • Age: 15 hours

Aktueller Status

Höhe 544.6 km
Geschwindigkeit 7.60 km/s
Subsatellitenpunkt 50.18°N, 0.56°E
Startdatum 18. Dez. 2021
Alter 3.9 years
Typ internet

Technische Details

Klassifizierung Payload
Masse 290.00 kg
Trockenmasse 270.00 kg
Gesamtmasse 290.00 kg
Länge 0.20 m
Durchmesser 2.80 m
Spannweite 9.00 m
Form Box + pan
Hersteller SPXS
Bus-Typ Starlink
Phasenstatus In Orbit
Besitzer/Staat SPXS/US

Große Konstellationen

Loading constellations...